Hourly Weather Sumgayit

Today, 5 July, Sunday

Time Temperature Precipitation Wind Pressure Humidity
00:00 +27°C° 0 mm 1 mps 737 mmHg 22%
01:00 +26°C° 0 mm 1 mps 737 mmHg 23%
02:00 +24°C° 0 mm 0 mps 736 mmHg 25%
03:00 +23°C° 0 mm 0 mps 736 mmHg 28%
04:00 +24°C° 0 mm 0 mps 737 mmHg 26%
05:00 +27°C° 0 mm 1 mps 737 mmHg 24%
06:00 +29°C° 0 mm 1 mps 737 mmHg 22%
07:00 +30°C° 0 mm 2 mps 737 mmHg 20%
08:00 +31°C° 0 mm 2 mps 737 mmHg 18%
09:00 +34°C° 0 mm 3 mps 737 mmHg 17%
10:00 +34°C° 0 mm 4 mps 737 mmHg 17%
11:00 +35°C° 0 mm 4 mps 737 mmHg 17%
12:00 +36°C° 0 mm 4 mps 736 mmHg 16%
13:00 +36°C° 0 mm 5 mps 736 mmHg 16%
14:00 +36°C° 0 mm 5 mps 736 mmHg 15%
15:00 +36°C° 0 mm 5 mps 735 mmHg 15%
16:00 +36°C° 0 mm 4 mps 735 mmHg 15%
17:00 +35°C° 0 mm 3 mps 735 mmHg 15%
18:00 +35°C° 0 mm 2 mps 735 mmHg 15%
19:00 +32°C° 0 mm 2 mps 735 mmHg 17%
20:00 +31°C° 0 mm 2 mps 735 mmHg 19%
21:00 +30°C° 0 mm 2 mps 735 mmHg 21%
22:00 +29°C° 0 mm 1 mps 735 mmHg 23%
23:00 +28°C° 0 mm 1 mps 735 mmHg 25%

Tomorrow, 6 July, Monday

Time Temperature Precipitation Wind Pressure Humidity
00:00 +27°C° 0 mm 1 mps 735 mmHg 27%
01:00 +27°C° 0 mm 1 mps 735 mmHg 27%
02:00 +27°C° 0 mm 1 mps 734 mmHg 27%
03:00 +26°C° 0 mm 1 mps 734 mmHg 26%
04:00 +27°C° 0 mm 1 mps 734 mmHg 25%
05:00 +28°C° 0 mm 2 mps 734 mmHg 23%
06:00 +29°C° 0 mm 2 mps 735 mmHg 21%
07:00 +31°C° 0 mm 3 mps 735 mmHg 21%
08:00 +34°C° 0 mm 4 mps 735 mmHg 20%
09:00 +35°C° 0 mm 4 mps 735 mmHg 19%
10:00 +36°C° 0 mm 4 mps 735 mmHg 19%
11:00 +37°C° 0 mm 4 mps 734 mmHg 19%
12:00 +37°C° 0 mm 4 mps 734 mmHg 19%
13:00 +37°C° 0 mm 4 mps 734 mmHg 19%
14:00 +38°C° 0 mm 4 mps 734 mmHg 19%
15:00 +38°C° 0 mm 4 mps 734 mmHg 19%
16:00 +37°C° 0 mm 4 mps 734 mmHg 21%
17:00 +36°C° 0 mm 4 mps 733 mmHg 22%
18:00 +36°C° 0 mm 3 mps 733 mmHg 24%
19:00 +34°C° 0 mm 2 mps 734 mmHg 26%
20:00 +32°C° 0 mm 2 mps 734 mmHg 29%
21:00 +31°C° 0 mm 1 mps 734 mmHg 32%
22:00 +30°C° 0 mm 1 mps 734 mmHg 33%
23:00 +27°C° 0 mm 0 mps 734 mmHg 34%

Day after tomorrow, 7 July, Tuesday

Time Temperature Precipitation Wind Pressure Humidity
00:00 +26°C° 0 mm 0 mps 733 mmHg 35%
01:00 +26°C° 0 mm 0 mps 733 mmHg 36%
02:00 +25°C° 0 mm 0 mps 733 mmHg 36%
03:00 +25°C° 0 mm 0 mps 733 mmHg 37%
04:00 +26°C° 0 mm 0 mps 733 mmHg 34%
05:00 +27°C° 0 mm 0 mps 733 mmHg 32%
06:00 +29°C° 0 mm 0 mps 733 mmHg 29%
07:00 +32°C° 0 mm 1 mps 734 mmHg 25%
08:00 +35°C° 0 mm 2 mps 734 mmHg 22%
09:00 +36°C° 0 mm 3 mps 734 mmHg 18%
10:00 +37°C° 0 mm 3 mps 734 mmHg 17%
11:00 +38°C° 0 mm 4 mps 734 mmHg 16%
12:00 +40°C° 0 mm 5 mps 734 mmHg 15%
13:00 +40°C° 0 mm 6 mps 733 mmHg 15%
14:00 +40°C° 0 mm 6 mps 733 mmHg 16%
15:00 +40°C° 0 mm 6 mps 733 mmHg 16%
16:00 +37°C° 0 mm 5 mps 733 mmHg 19%
17:00 +36°C° 0 mm 5 mps 733 mmHg 22%
18:00 +34°C° 0 mm 4 mps 733 mmHg 25%
19:00 +33°C° 0 mm 3 mps 733 mmHg 27%
20:00 +31°C° 0 mm 2 mps 733 mmHg 29%
21:00 +30°C° 0 mm 1 mps 733 mmHg 30%
22:00 +30°C° 0 mm 1 mps 733 mmHg 30%
23:00 +29°C° 0 mm 1 mps 733 mmHg 30%

8 July, Wednesday

Time Temperature Precipitation Wind Pressure Humidity
00:00 +28°C° 0 mm 1 mps 733 mmHg 30%
01:00 +28°C° 0 mm 1 mps 733 mmHg 31%
02:00 +27°C° 0 mm 1 mps 732 mmHg 32%
03:00 +27°C° 0 mm 1 mps 732 mmHg 34%
04:00 +28°C° 0 mm 1 mps 733 mmHg 32%
05:00 +29°C° 0 mm 1 mps 733 mmHg 30%
06:00 +30°C° 0 mm 1 mps 733 mmHg 29%
07:00 +32°C° 0 mm 2 mps 733 mmHg 25%
08:00 +34°C° 0 mm 3 mps 734 mmHg 22%
09:00 +36°C° 0 mm 3 mps 734 mmHg 18%
10:00 +37°C° 0 mm 4 mps 734 mmHg 17%
11:00 +39°C° 0 mm 5 mps 733 mmHg 16%
12:00 +40°C° 0 mm 5 mps 733 mmHg 15%
13:00 +40°C° 0 mm 5 mps 733 mmHg 15%
14:00 +40°C° 0 mm 5 mps 733 mmHg 15%
15:00 +40°C° 0 mm 5 mps 732 mmHg 14%
16:00 +39°C° 0 mm 5 mps 732 mmHg 15%
17:00 +37°C° 0 mm 5 mps 732 mmHg 16%
18:00 +36°C° 0 mm 4 mps 732 mmHg 17%
19:00 +35°C° 0 mm 3 mps 732 mmHg 20%
20:00 +32°C° 0 mm 2 mps 732 mmHg 22%
21:00 +31°C° 0 mm 1 mps 732 mmHg 24%
22:00 +31°C° 0 mm 1 mps 732 mmHg 25%
23:00 +30°C° 0 mm 1 mps 732 mmHg 25%

9 July, Thursday

Time Temperature Precipitation Wind Pressure Humidity
00:00 +30°C° 0 mm 1 mps 732 mmHg 26%
01:00 +29°C° 0 mm 1 mps 732 mmHg 27%
02:00 +29°C° 0 mm 1 mps 732 mmHg 28%
03:00 +28°C° 0 mm 1 mps 732 mmHg 29%
04:00 +29°C° 0 mm 1 mps 732 mmHg 27%
05:00 +30°C° 0 mm 1 mps 732 mmHg 25%
06:00 +31°C° 0 mm 2 mps 732 mmHg 23%
07:00 +34°C° 0 mm 2 mps 732 mmHg 21%
08:00 +35°C° 0 mm 3 mps 732 mmHg 20%
09:00 +36°C° 0 mm 3 mps 733 mmHg 18%
10:00 +37°C° 0.1 mm 3 mps 733 mmHg 17%
11:00 +38°C° 0.1 mm 3 mps 733 mmHg 16%
12:00 +39°C° 0.1 mm 3 mps 733 mmHg 15%
13:00 +39°C° 0 mm 3 mps 732 mmHg 16%
14:00 +38°C° 0 mm 4 mps 732 mmHg 18%
15:00 +38°C° 0 mm 4 mps 732 mmHg 19%
16:00 +37°C° 0 mm 5 mps 732 mmHg 23%
17:00 +36°C° 0 mm 5 mps 732 mmHg 27%
18:00 +35°C° 0 mm 6 mps 732 mmHg 31%
19:00 +34°C° 0 mm 5 mps 732 mmHg 35%
20:00 +32°C° 0 mm 4 mps 732 mmHg 40%
21:00 +30°C° 0 mm 3 mps 732 mmHg 45%
22:00 +30°C° 0 mm 3 mps 732 mmHg 46%
23:00 +30°C° 0 mm 3 mps 732 mmHg 47%

10 July, Friday

Time Temperature Precipitation Wind Pressure Humidity
00:00 +29°C° 0 mm 2 mps 732 mmHg 48%
01:00 +29°C° 0 mm 2 mps 732 mmHg 48%
02:00 +29°C° 0 mm 2 mps 732 mmHg 49%
03:00 +29°C° 0 mm 2 mps 732 mmHg 49%
04:00 +29°C° 0 mm 2 mps 733 mmHg 47%
05:00 +29°C° 0 mm 2 mps 733 mmHg 45%
06:00 +30°C° 0 mm 2 mps 733 mmHg 43%
07:00 +31°C° 0 mm 3 mps 734 mmHg 39%
08:00 +34°C° 0 mm 4 mps 734 mmHg 35%
09:00 +36°C° 0 mm 5 mps 734 mmHg 31%
10:00 +36°C° 0 mm 6 mps 734 mmHg 31%
11:00 +38°C° 0 mm 7 mps 734 mmHg 31%
12:00 +38°C° 0 mm 7 mps 734 mmHg 31%
13:00 +38°C° 0 mm 9 mps 734 mmHg 32%
14:00 +37°C° 0 mm 10 mps 733 mmHg 33%
15:00 +37°C° 0 mm 11 mps 733 mmHg 34%
16:00 +36°C° 0 mm 11 mps 733 mmHg 35%
17:00 +36°C° 0 mm 11 mps 733 mmHg 36%
18:00 +34°C° 0 mm 12 mps 733 mmHg 37%
19:00 +34°C° 0 mm 11 mps 733 mmHg 36%
20:00 +34°C° 0 mm 11 mps 734 mmHg 36%
21:00 +34°C° 0 mm 10 mps 734 mmHg 35%
22:00 +34°C° 0 mm 8 mps 734 mmHg 35%
23:00 +33°C° 0 mm 7 mps 734 mmHg 35%
Show more